Location: Oulou
(10.7667°N, 12.5167°W)
Time: 07:46:40
(UTC+00:00)

Cosmos 2251 Rocket - Pass Details

Date: 20 September 2019
Orbit: 764 x 792 km, 74.0° (Epoch: 13 October)

Event Time Altitude Azimuth Distance (km) Brightness Sun altitude
Rises 19:44:28 0° 353° (N) 3,277 6.9 -14.8°
Reaches altitude 10° 19:46:53 10° 357° (N) 2,346 6.1 -15.4°
Maximum altitude 19:52:09 60° 77° (ENE) 892 3.5 -16.7°
Drops below altitude 10° 19:57:23 10° 157° (SSE) 2,333 5.7 -17.9°
Enters shadow 19:59:04 - 159° (SSE) 2,974 6.3 -18.4°
